Time,TemperatureF,DewpointF,PressureIn,WindDirection,WindDirectionDegrees,WindSpeedMPH,WindSpeedGustMPH,Humidity,HourlyPrecipIn,Conditions,Clouds,dailyrainin,SoftwareType,DateUTC
2013-03-19 00:07:00,58.3,25.1,29.98,SE,135,1.1,2.0,28,0.00,,,0.00,WUHU216HW,2013-03-19 07:07:00,
2013-03-19 00:17:00,58.3,26.1,29.98,SE,135,0.4,1.1,29,0.00,,,0.00,WUHU216HW,2013-03-19 07:17:00,
2013-03-19 00:27:00,58.1,25.9,29.98,SE,135,1.1,1.3,29,0.00,,,0.00,WUHU216HW,2013-03-19 07:27:00,
2013-03-19 00:37:00,58.0,25.8,29.98,ESE,113,0.7,1.6,29,0.00,,,0.00,WUHU216HW,2013-03-19 07:37:00,
2013-03-19 00:47:00,58.0,25.8,29.98,ESE,113,0.0,1.3,29,0.00,,,0.00,WUHU216HW,2013-03-19 07:47:00,
2013-03-19 00:57:00,57.8,26.6,29.98,NNE,23,0.4,0.7,30,0.00,,,0.00,WUHU216HW,2013-03-19 07:57:00,
2013-03-19 01:07:00,57.4,27.0,29.98,NE,45,0.0,1.3,31,0.00,,,0.00,WUHU216HW,2013-03-19 08:07:00,
2013-03-19 01:17:00,57.1,26.6,29.98,North,0,0.0,0.0,31,0.00,,,0.00,WUHU216HW,2013-03-19 08:17:00,
2013-03-19 01:27:00,56.7,27.0,29.98,SSE,158,0.0,1.1,32,0.00,,,0.00,WUHU216HW,2013-03-19 08:27:00,
2013-03-19 01:37:00,56.2,26.6,29.98,SSW,203,0.0,0.0,32,0.00,,,0.00,WUHU216HW,2013-03-19 08:37:00,
2013-03-19 01:48:00,55.6,26.7,29.98,SSW,203,0.4,0.4,33,0.00,,,0.00,WUHU216HW,2013-03-19 08:48:00,
2013-03-19 01:58:00,55.3,28.5,29.98,SSE,158,0.0,0.2,36,0.00,,,0.00,WUHU216HW,2013-03-19 08:58:00,
2013-03-19 02:08:00,54.9,28.3,29.98,SSE,158,0.0,0.0,36,0.00,,,0.00,WUHU216HW,2013-03-19 09:08:00,
2013-03-19 02:18:00,54.5,27.9,29.98,WSW,248,0.0,0.4,36,0.00,,,0.00,WUHU216HW,2013-03-19 09:18:00,
2013-03-19 02:28:00,54.2,27.6,29.98,ENE,68,0.0,0.0,36,0.00,,,0.00,WUHU216HW,2013-03-19 09:28:00,
2013-03-19 02:38:00,53.8,28.0,29.98,ESE,113,0.0,0.9,37,0.00,,,0.00,WUHU216HW,2013-03-19 09:38:00,
2013-03-19 02:48:00,53.6,27.8,29.97,SE,135,0.4,0.9,37,0.00,,,0.00,WUHU216HW,2013-03-19 09:48:00,
2013-03-19 02:58:00,53.5,27.6,29.97,South,180,0.0,0.4,37,0.00,,,0.00,WUHU216HW,2013-03-19 09:58:00,
2013-03-19 03:08:00,53.3,27.6,29.97,SSW,203,0.0,0.4,37,0.00,,,0.00,WUHU216HW,2013-03-19 10:08:00,
2013-03-19 03:18:00,53.1,27.4,29.97,SSW,203,0.0,0.4,37,0.00,,,0.00,WUHU216HW,2013-03-19 10:18:00,
2013-03-19 03:28:00,52.9,27.9,29.97,ESE,113,0.4,0.7,38,0.00,,,0.00,WUHU216HW,2013-03-19 10:28:00,
2013-03-19 03:38:00,52.7,28.4,29.96,ESE,113,0.4,0.4,39,0.00,,,0.00,WUHU216HW,2013-03-19 10:38:00,
2013-03-19 03:48:00,52.4,28.1,29.96,SE,135,0.4,1.3,39,0.00,,,0.00,WUHU216HW,2013-03-19 10:48:00,
2013-03-19 03:58:00,52.2,27.9,29.95,SE,135,1.1,1.6,39,0.00,,,0.00,WUHU216HW,2013-03-19 10:58:00,
2013-03-19 04:08:00,52.2,27.9,29.95,SE,135,0.0,1.8,39,0.00,,,0.00,WUHU216HW,2013-03-19 11:08:00,
2013-03-19 04:18:00,52.2,28.6,29.95,South,180,0.0,0.4,40,0.00,,,0.00,WUHU216HW,2013-03-19 11:18:00,
2013-03-19 04:28:00,52.0,28.5,29.95,SE,135,0.0,0.4,40,0.00,,,0.00,WUHU216HW,2013-03-19 11:28:00,
2013-03-19 04:39:00,51.5,28.5,29.95,SSW,203,0.0,0.0,41,0.00,,,0.00,WUHU216HW,2013-03-19 11:39:00,
2013-03-19 04:49:00,51.3,28.9,29.95,SSW,203,0.0,0.0,42,0.00,,,0.00,WUHU216HW,2013-03-19 11:49:00,
2013-03-19 04:59:00,50.8,29.0,29.96,West,270,0.0,0.4,43,0.00,,,0.00,WUHU216HW,2013-03-19 11:59:00,
2013-03-19 05:09:00,50.6,28.3,29.96,SW,225,0.4,0.4,42,0.00,,,0.00,WUHU216HW,2013-03-19 12:09:00,
2013-03-19 05:19:00,50.2,28.4,29.96,SE,135,0.4,0.7,43,0.00,,,0.00,WUHU216HW,2013-03-19 12:19:00,
2013-03-19 05:29:00,50.0,28.4,29.96,SE,135,1.8,1.8,43,0.00,,,0.00,WUHU216HW,2013-03-19 12:29:00,
2013-03-19 05:39:00,49.9,28.2,29.97,ESE,113,0.9,1.8,43,0.00,,,0.00,WUHU216HW,2013-03-19 12:39:00,
2013-03-19 05:49:00,49.9,28.7,29.97,SE,135,1.8,1.8,44,0.00,,,0.00,WUHU216HW,2013-03-19 12:49:00,
2013-03-19 05:59:00,50.0,28.9,29.97,SSE,158,0.9,1.1,44,0.00,,,0.00,WUHU216HW,2013-03-19 12:59:00,
2013-03-19 06:09:00,50.2,29.1,29.97,SSE,158,0.0,0.9,44,0.00,,,0.00,WUHU216HW,2013-03-19 13:09:00,
2013-03-19 06:19:00,50.2,29.1,29.97,SE,135,0.0,0.2,44,0.00,,,0.00,WUHU216HW,2013-03-19 13:19:00,
2013-03-19 06:29:00,49.9,29.3,29.98,West,270,0.0,0.7,45,0.00,,,0.00,WUHU216HW,2013-03-19 13:29:00,
2013-03-19 06:39:00,50.0,29.4,29.98,SE,135,0.0,1.6,45,0.00,,,0.00,WUHU216HW,2013-03-19 13:39:00,
2013-03-19 06:49:00,50.0,30.0,29.98,WSW,248,0.0,0.9,46,0.00,,,0.00,WUHU216HW,2013-03-19 13:49:00,
2013-03-19 06:59:00,49.9,29.3,29.99,WSW,248,0.0,0.2,45,0.00,,,0.00,WUHU216HW,2013-03-19 13:59:00,
2013-03-19 07:09:00,49.9,29.8,29.99,SE,135,0.2,0.4,46,0.00,,,0.00,WUHU216HW,2013-03-19 14:09:00,
2013-03-19 07:19:00,50.0,30.5,29.99,ESE,113,0.9,1.1,47,0.00,,,0.00,WUHU216HW,2013-03-19 14:19:00,
2013-03-19 07:29:00,50.6,31.1,29.99,ESE,113,0.4,1.1,47,0.00,,,0.00,WUHU216HW,2013-03-19 14:29:00,
2013-03-19 07:40:00,51.5,31.9,29.99,SE,135,0.9,1.8,47,0.00,,,0.00,WUHU216HW,2013-03-19 14:40:00,
2013-03-19 07:50:00,52.4,32.1,30.00,ESE,113,0.4,1.6,46,0.00,,,0.00,WUHU216HW,2013-03-19 14:50:00,
2013-03-19 08:00:00,53.5,33.0,30.00,ESE,113,1.1,1.1,46,0.00,,,0.00,WUHU216HW,2013-03-19 15:00:00,
2013-03-19 08:10:00,54.7,33.7,30.01,SW,225,0.0,0.9,45,0.00,,,0.00,WUHU216HW,2013-03-19 15:10:00,
2013-03-19 08:20:00,56.2,35.0,30.01,SSW,203,0.0,1.8,45,0.00,,,0.00,WUHU216HW,2013-03-19 15:20:00,
2013-03-19 08:30:00,57.6,35.2,30.01,ENE,68,1.1,1.1,43,0.00,,,0.00,WUHU216HW,2013-03-19 15:30:00,
2013-03-19 08:40:00,59.0,35.9,30.02,SSE,158,2.2,2.2,42,0.00,,,0.00,WUHU216HW,2013-03-19 15:40:00,
2013-03-19 08:50:00,60.7,36.2,30.02,SSW,203,2.5,3.6,40,0.00,,,0.00,WUHU216HW,2013-03-19 15:50:00,
2013-03-19 09:00:00,62.1,36.1,30.02,SSW,203,1.6,1.6,38,0.00,,,0.00,WUHU216HW,2013-03-19 16:00:00,
2013-03-19 09:10:00,62.8,36.0,30.03,South,180,2.0,2.0,37,0.00,,,0.00,WUHU216HW,2013-03-19 16:10:00,
2013-03-19 09:20:00,63.5,36.6,30.02,South,180,1.6,2.5,37,0.00,,,0.00,WUHU216HW,2013-03-19 16:20:00,
2013-03-19 09:30:00,64.8,37.1,30.03,SSE,158,0.0,2.0,36,0.00,,,0.00,WUHU216HW,2013-03-19 16:30:00,
2013-03-19 09:40:00,66.2,37.6,30.03,WSW,248,1.1,2.5,35,0.00,,,0.00,WUHU216HW,2013-03-19 16:40:00,
2013-03-19 09:50:00,67.3,37.8,30.03,WSW,248,2.5,3.4,34,0.00,,,0.00,WUHU216HW,2013-03-19 16:50:00,
2013-03-19 10:00:00,68.2,37.8,30.03,WSW,248,1.6,3.6,33,0.00,,,0.00,WUHU216HW,2013-03-19 17:00:00,
2013-03-19 10:11:00,68.8,38.4,30.03,SW,225,1.3,2.9,33,0.00,,,0.00,WUHU216HW,2013-03-19 17:11:00,
2013-03-19 10:21:00,69.7,39.2,30.02,SW,225,0.7,3.1,33,0.00,,,0.00,WUHU216HW,2013-03-19 17:21:00,
2013-03-19 10:31:00,70.9,38.8,30.02,WSW,248,4.0,5.4,31,0.00,,,0.00,WUHU216HW,2013-03-19 17:31:00,
2013-03-19 10:41:00,72.2,38.1,30.02,WNW,293,1.6,4.5,29,0.00,,,0.00,WUHU216HW,2013-03-19 17:41:00,
2013-03-19 10:51:00,72.7,37.5,30.02,SW,225,6.0,6.0,28,0.00,,,0.00,WUHU216HW,2013-03-19 17:51:00,
2013-03-19 11:02:00,73.3,36.0,30.02,SW,225,1.8,6.3,26,0.00,,,0.00,WUHU216HW,2013-03-19 18:02:00,
2013-03-19 11:12:00,73.8,34.4,30.02,WNW,293,2.2,6.3,24,0.00,,,0.00,WUHU216HW,2013-03-19 18:12:00,
2013-03-19 11:22:00,73.8,34.4,30.02,NW,315,4.0,5.4,24,0.00,,,0.00,WUHU216HW,2013-03-19 18:22:00,
2013-03-19 11:32:00,74.3,33.9,30.02,NW,315,4.7,4.7,23,0.00,,,0.00,WUHU216HW,2013-03-19 18:32:00,
2013-03-19 11:42:00,74.7,34.1,30.02,WSW,248,3.1,3.6,23,0.00,,,0.00,WUHU216HW,2013-03-19 18:42:00,
2013-03-19 11:52:00,75.2,33.6,30.01,North,0,4.9,8.7,22,0.00,,,0.00,WUHU216HW,2013-03-19 18:52:00,
2013-03-19 12:02:00,75.8,32.9,30.02,NW,315,6.5,10.7,21,0.00,,,0.00,WUHU216HW,2013-03-19 19:02:00,
2013-03-19 12:12:00,75.8,30.2,30.02,NW,315,4.9,8.1,19,0.00,,,0.00,WUHU216HW,2013-03-19 19:12:00,
2013-03-19 12:22:00,76.3,32.4,30.01,WNW,293,3.6,6.9,20,0.00,,,0.00,WUHU216HW,2013-03-19 19:22:00,
2013-03-19 12:33:00,76.7,32.7,30.01,SW,225,6.0,9.8,20,0.00,,,0.00,WUHU216HW,2013-03-19 19:33:00,
2013-03-19 12:43:00,76.9,31.1,30.01,NW,315,5.1,7.2,19,0.00,,,0.00,WUHU216HW,2013-03-19 19:43:00,
2013-03-19 12:53:00,76.7,31.0,30.00,SW,225,1.8,11.6,19,0.00,,,0.00,WUHU216HW,2013-03-19 19:53:00,
2013-03-19 13:03:00,76.9,31.1,30.00,West,270,8.7,8.7,19,0.00,,,0.00,WUHU216HW,2013-03-19 20:03:00,
2013-03-19 13:13:00,77.8,31.9,29.99,West,270,5.4,9.2,19,0.00,,,0.00,WUHU216HW,2013-03-19 20:13:00,
2013-03-19 13:23:00,77.9,30.3,29.99,NW,315,4.9,7.4,18,0.00,,,0.00,WUHU216HW,2013-03-19 20:23:00,
2013-03-19 13:34:00,78.1,30.5,29.98,SW,225,7.4,7.6,18,0.00,,,0.00,WUHU216HW,2013-03-19 20:34:00,
2013-03-19 13:44:00,77.9,28.6,29.98,WNW,293,6.7,7.4,17,0.00,,,0.00,WUHU216HW,2013-03-19 20:44:00,
2013-03-19 13:54:00,78.3,29.0,29.98,NNW,338,6.0,8.5,17,0.00,,,0.00,WUHU216HW,2013-03-19 20:54:00,
2013-03-19 14:04:00,78.7,30.9,29.98,NW,315,5.4,6.0,18,0.00,,,0.00,WUHU216HW,2013-03-19 21:04:00,
2013-03-19 14:14:00,79.4,29.8,29.98,SW,225,3.8,6.9,17,0.00,,,0.00,WUHU216HW,2013-03-19 21:14:00,
2013-03-19 14:24:00,79.4,29.8,29.98,WNW,293,6.7,10.1,17,0.00,,,0.00,WUHU216HW,2013-03-19 21:24:00,
2013-03-19 14:34:00,79.2,31.3,29.97,West,270,5.8,7.4,18,0.00,,,0.00,WUHU216HW,2013-03-19 21:34:00,
2013-03-19 14:44:00,79.6,30.0,29.97,West,270,5.6,7.8,17,0.00,,,0.00,WUHU216HW,2013-03-19 21:44:00,
2013-03-19 14:54:00,79.6,28.3,29.97,NW,315,7.8,9.2,16,0.00,,,0.00,WUHU216HW,2013-03-19 21:54:00,
2013-03-19 15:05:00,79.4,29.8,29.97,NW,315,7.4,8.1,17,0.00,,,0.00,WUHU216HW,2013-03-19 22:05:00,
2013-03-19 15:15:00,79.6,30.0,29.97,WNW,293,3.4,4.9,17,0.00,,,0.00,WUHU216HW,2013-03-19 22:15:00,
2013-03-19 15:25:00,79.4,28.2,29.97,West,270,2.9,7.4,16,0.00,,,0.00,WUHU216HW,2013-03-19 22:25:00,
2013-03-19 15:35:00,79.2,29.7,29.96,NNW,338,6.7,8.3,17,0.00,,,0.00,WUHU216HW,2013-03-19 22:35:00,
2013-03-19 15:45:00,79.0,29.5,29.96,North,0,2.7,6.5,17,0.00,,,0.00,WUHU216HW,2013-03-19 22:45:00,
2013-03-19 15:55:00,79.0,29.5,29.96,NW,315,6.3,9.2,17,0.00,,,0.00,WUHU216HW,2013-03-19 22:55:00,
2013-03-19 16:05:00,79.2,29.7,29.96,North,0,5.1,9.2,17,0.00,,,0.00,WUHU216HW,2013-03-19 23:05:00,
2013-03-19 16:15:00,78.8,27.7,29.96,NW,315,3.8,8.5,16,0.00,,,0.00,WUHU216HW,2013-03-19 23:15:00,
2013-03-19 16:25:00,78.5,29.1,29.96,NNE,23,8.3,8.5,17,0.00,,,0.00,WUHU216HW,2013-03-19 23:25:00,
2013-03-19 16:35:00,78.3,29.0,29.97,North,0,8.1,9.2,17,0.00,,,0.00,WUHU216HW,2013-03-19 23:35:00,
2013-03-19 16:45:00,78.3,29.0,29.96,North,0,3.4,7.2,17,0.00,,,0.00,WUHU216HW,2013-03-19 23:45:00,
2013-03-19 16:56:00,77.9,28.6,29.96,NNW,338,2.0,9.8,17,0.00,,,0.00,WUHU216HW,2013-03-19 23:56:00,
2013-03-19 17:06:00,77.6,28.4,29.97,NW,315,4.3,8.9,17,0.00,,,0.00,WUHU216HW,2013-03-20 00:06:00,
2013-03-19 17:16:00,77.6,28.4,29.97,West,270,3.6,7.8,17,0.00,,,0.00,WUHU216HW,2013-03-20 00:16:00,
2013-03-19 17:26:00,77.6,28.4,29.97,WNW,293,4.5,6.7,17,0.00,,,0.00,WUHU216HW,2013-03-20 00:26:00,
2013-03-19 17:36:00,77.0,29.6,29.97,NNW,338,6.5,7.6,18,0.00,,,0.00,WUHU216HW,2013-03-20 00:36:00,
2013-03-19 17:46:00,76.7,29.3,29.97,NW,315,4.0,5.8,18,0.00,,,0.00,WUHU216HW,2013-03-20 00:46:00,
2013-03-19 17:56:00,76.5,27.5,29.98,NW,315,4.0,6.9,17,0.00,,,0.00,WUHU216HW,2013-03-20 00:56:00,
2013-03-19 18:07:00,76.0,28.8,29.98,NW,315,3.4,6.0,18,0.00,,,0.00,WUHU216HW,2013-03-20 01:07:00,
2013-03-19 18:17:00,75.6,28.4,29.98,NNW,338,2.5,4.7,18,0.00,,,0.00,WUHU216HW,2013-03-20 01:17:00,
2013-03-19 18:27:00,75.1,28.1,29.98,West,270,1.1,4.5,18,0.00,,,0.00,WUHU216HW,2013-03-20 01:27:00,
2013-03-19 18:37:00,74.3,27.5,29.98,NW,315,2.7,4.3,18,0.00,,,0.00,WUHU216HW,2013-03-20 01:37:00,
2013-03-19 18:47:00,74.0,28.9,29.98,NW,315,0.9,4.9,19,0.00,,,0.00,WUHU216HW,2013-03-20 01:47:00,
2013-03-19 18:57:00,73.6,28.5,29.98,NNW,338,1.8,2.0,19,0.00,,,0.00,WUHU216HW,2013-03-20 01:57:00,
2013-03-19 19:07:00,72.9,27.9,29.99,North,0,1.3,2.5,19,0.00,,,0.00,WUHU216HW,2013-03-20 02:07:00,
2013-03-19 19:17:00,72.2,28.9,29.99,NNW,338,0.4,2.0,20,0.00,,,0.00,WUHU216HW,2013-03-20 02:17:00,
2013-03-19 19:27:00,71.5,29.4,30.00,North,0,0.7,1.1,21,0.00,,,0.00,WUHU216HW,2013-03-20 02:27:00,
2013-03-19 19:37:00,70.6,29.6,30.00,North,0,0.0,1.1,22,0.00,,,0.00,WUHU216HW,2013-03-20 02:37:00,
2013-03-19 19:47:00,69.7,28.9,30.00,NNE,23,0.0,0.4,22,0.00,,,0.00,WUHU216HW,2013-03-20 02:47:00,
2013-03-19 19:57:00,68.6,29.0,30.00,SSE,158,0.0,1.1,23,0.00,,,0.00,WUHU216HW,2013-03-20 02:57:00,
2013-03-19 20:07:00,67.1,29.7,30.00,East,90,0.7,1.3,25,0.00,,,0.00,WUHU216HW,2013-03-20 03:07:00,
2013-03-19 20:17:00,66.2,29.0,30.01,SE,135,1.1,3.6,25,0.00,,,0.00,WUHU216HW,2013-03-20 03:17:00,
2013-03-19 20:27:00,65.9,28.7,30.01,ESE,113,1.1,1.6,25,0.00,,,0.00,WUHU216HW,2013-03-20 03:27:00,
2013-03-19 20:38:00,65.0,27.9,30.02,East,90,2.2,2.5,25,0.00,,,0.00,WUHU216HW,2013-03-20 03:38:00,
2013-03-19 20:48:00,64.4,28.4,30.02,East,90,1.6,3.1,26,0.00,,,0.00,WUHU216HW,2013-03-20 03:48:00,
2013-03-19 20:58:00,64.1,27.2,30.02,East,90,0.4,1.6,25,0.00,,,0.00,WUHU216HW,2013-03-20 03:58:00,
2013-03-19 21:08:00,63.4,26.6,30.03,ESE,113,1.1,1.6,25,0.00,,,0.00,WUHU216HW,2013-03-20 04:08:00,
2013-03-19 21:18:00,63.0,26.2,30.03,East,90,1.3,1.8,25,0.00,,,0.00,WUHU216HW,2013-03-20 04:18:00,
2013-03-19 21:28:00,62.5,27.7,30.03,SE,135,1.1,1.6,27,0.00,,,0.00,WUHU216HW,2013-03-20 04:28:00,
2013-03-19 21:38:00,61.9,27.3,30.03,ESE,113,1.8,1.8,27,0.00,,,0.00,WUHU216HW,2013-03-20 04:38:00,
2013-03-19 21:48:00,61.4,26.7,30.03,ESE,113,1.6,2.2,27,0.00,,,0.00,WUHU216HW,2013-03-20 04:48:00,
2013-03-19 21:58:00,61.2,27.5,30.04,SSE,158,0.4,2.0,28,0.00,,,0.00,WUHU216HW,2013-03-20 04:58:00,
2013-03-19 22:08:00,60.8,27.3,30.04,NNE,23,0.2,0.9,28,0.00,,,0.00,WUHU216HW,2013-03-20 05:08:00,
2013-03-19 22:19:00,60.3,26.8,30.04,ESE,113,1.1,1.1,28,0.00,,,0.00,WUHU216HW,2013-03-20 05:19:00,
2013-03-19 22:31:00,59.9,27.5,30.05,WNW,293,0.0,0.9,29,0.00,,,0.00,WUHU216HW,2013-03-20 05:31:00,
2013-03-19 22:41:00,59.2,27.9,30.05,East,90,0.0,0.4,30,0.00,,,0.00,WUHU216HW,2013-03-20 05:41:00,
2013-03-19 22:51:00,58.7,28.1,30.05,SW,225,1.8,1.8,31,0.00,,,0.00,WUHU216HW,2013-03-20 05:51:00,
2013-03-19 23:01:00,58.1,28.4,30.05,East,90,0.0,1.1,32,0.00,,,0.00,WUHU216HW,2013-03-20 06:01:00,
2013-03-19 23:11:00,57.8,28.0,30.05,South,180,0.0,1.1,32,0.00,,,0.00,WUHU216HW,2013-03-20 06:11:00,
2013-03-19 23:21:00,57.6,27.8,30.05,SSE,158,0.0,1.1,32,0.00,,,0.00,WUHU216HW,2013-03-20 06:21:00,
2013-03-19 23:31:00,57.4,28.4,30.05,ENE,68,0.0,0.7,33,0.00,,,0.00,WUHU216HW,2013-03-20 06:31:00,
2013-03-19 23:42:00,57.1,28.7,30.05,ENE,68,0.7,1.6,34,0.00,,,0.00,WUHU216HW,2013-03-20 06:42:00,
2013-03-19 23:52:00,56.9,28.6,30.05,NNE,23,0.0,1.6,34,0.00,,,0.00,WUHU216HW,2013-03-20 06:52:00,